Location: Praha
(50.0830°N, 14.4670°E)
Time: 10:45:26
(UTC+02:00)

ISS - Pass Details

Date: 28 April 2025
Orbit: 416 x 419 km, 51.6° (Epoch: 18 May)

Event Time Altitude Azimuth Distance (km) Brightness Sun altitude
Exits shadow 04:32:29 14° 260° (W) 1,284 -1.8 -10.6°
Maximum altitude 04:35:20 80° 347° (NNW) 429 -3.7 -10.3°
Drops below altitude 10° 04:38:41 10° 75° (ENE) 1,498 0.3 -9.8°
Sets 04:40:48 0° 77° (ENE) 2,363 1.5 -9.6°
